This demonstration page uses our WeatherBlox Daily Observations layout. Learn more.

Left ArrowRight Arrow

Hourly Observations for September 1, 2019

Temp ( °F °C ) Dew Point ( °F °C ) Humidity (%) Winds ( mph kmh ) Pressure ( in mb ) Visibility ( mi km ) Precip ( " mm )
12:59 am 00:59 Clear 72 22.2 65 18.3 79 79 ESE 5 7 30.22 1024 10 16 0.00 0.00
1:59 am 01:59 Clear 70 21.1 66 18.9 87 87 Calm 30.22 1024 10 16 0.00 0.00
2:59 am 02:59 Clear 69 20.6 66 18.9 90 90 Calm 30.22 1023 10 16 0.00 0.00
3:59 am 03:59 Mostly Clear 71 21.7 68 20 90 90 ENE 5 7 30.21 1023 10 16 0.00 0.00
4:59 am 04:59 Mostly Clear 74 23.3 72 22.2 94 94 ENE 7 11 30.21 1023 10 16 0.00 0.00
5:22 am 05:22 Mostly Clear 75 23.9 72 22.2 90 90 ENE 6 9 30.21 1023 10 16 0.00 0.00
5:59 am 05:59 Mostly Clear 74 23.3 72 22.2 94 94 ENE 7 11 30.21 1023 10 16 0.00 0.00
6:59 am 06:59 Mostly Sunny 75 23.9 72 22.2 90 90 ENE 7 11 30.23 1024 10 16 0.00 0.00
7:34 am 07:34 Mostly Cloudy 75 23.9 72 22.2 90 90 ENE 9 15 30.24 1024 10 16 0.00 0.00
7:59 am 07:59 Mostly Cloudy 76 24.4 72 22.2 88 88 E 12 19 30.24 1024 10 16 0.00 0.00
8:59 am 08:59 Partly Cloudy 77 25 71 21.7 82 82 E 15 24 30.24 1024 10 16 0.00 0.00
9:59 am 09:59 Mostly Sunny 80 26.7 69 20.6 69 69 E 13 20 30.24 1024 10 16 0.00 0.00
10:59 am 10:59 Partly Cloudy 81 27.2 71 21.7 72 72 E 14 22 30.25 1024 10 16 0.00 0.00
11:59 am 11:59 Mostly Cloudy 82 27.8 70 21.1 67 67 E 13 20 30.24 1024 10 16 0.00 0.00
12:59 pm 12:59 Partly Cloudy 82 27.8 71 21.7 69 69 ENE 15 24 30.24 1024 10 16 0.00 0.00
1:59 pm 13:59 Partly Cloudy 82 27.8 72 22.2 72 72 ENE 14 22 30.23 1024 10 16 0.00 0.00
2:59 pm 14:59 Mostly Cloudy 82 27.8 72 22.2 72 72 NE 13 20 30.21 1023 10 16 0.00 0.00
3:59 pm 15:59 Mostly Cloudy 82 27.8 73 22.8 74 74 ENE 13 20 30.20 1023 10 16 0.00 0.00
4:59 pm 16:59 Mostly Cloudy 80 26.7 73 22.8 79 79 ENE 13 20 30.20 1023 10 16 0.00 0.00
5:59 pm 17:59 Mostly Cloudy 80 26.7 73 22.8 79 79 ENE 14 22 30.19 1023 10 16 0.00 0.00
6:59 pm 18:59 Mostly Cloudy 78 25.6 73 22.8 85 85 E 12 19 30.19 1023 9 14 0.00 0.00
7:59 pm 19:59 Mostly Cloudy 78 25.6 73 22.8 85 85 E 8 13 30.19 1022 10 16 0.00 0.00
8:32 pm 20:32 Mostly Cloudy 77 25 73 22.8 88 88 E 12 19 30.19 1022 10 16 0.00 0.00
8:59 pm 20:59 Mostly Cloudy 78 25.6 73 22.8 85 85 ENE 8 13 30.18 1022 10 16 0.00 0.00
9:59 pm 21:59 Mostly Cloudy 77 25 74 23.3 90 90 E 9 15 30.17 1022 9 14 0.00 0.00
10:59 pm 22:59 Partly Cloudy 77 25 74 23.3 90 90 E 9 15 30.16 1022 9 14 0.00 0.00
11:59 pm 23:59 Partly Cloudy 76 24.4 73 22.8 91 91 E 6 9 30.16 1021 9 14 0.00 0.00

Powered by AerisWeather